Simultaneous Nadir Overpasses (SNOs) Predictions

Prediction of SNOs between LANDSAT-8 and NOAA-19 Satellite Orbit:

Table of predicted SNOs for the next 14.0 days since TLE Epoch: 5/30/2020
Index Date (LANDSAT-8) Time (LANDSAT-8) Lat,Lon (LANDSAT-8) SZA (LANDSAT-8 ) Date (NOAA-19) Time (NOAA-19) Lat,Lon (NOAA-19) SZA (NOAA-19 ) Distance(km) Time Diff (sec)
1 05/31/2020 02:41:09 79.74, 165.30 58.87 05/31/2020 02:40:11 79.72, 165.24 58.82 2.50 58
2 05/31/2020 03:30:37 -79.71, -27.29 121.19 05/31/2020 03:31:07 -79.71, -27.35 121.19 1.23 30
3 06/02/2020 09:04:21 79.71, 69.24 58.51 06/02/2020 09:04:29 79.72, 69.27 58.52 1.75 8
4 06/04/2020 14:38:05 -79.75, 166.13 121.70 06/04/2020 14:37:44 -79.72, 166.03 121.74 3.60 21
5 06/04/2020 15:27:31 79.75, -26.27 58.29 06/04/2020 15:28:45 79.67, -26.13 58.26 8.81 74
6 06/06/2020 20:11:49 79.74, -97.36 58.05 06/06/2020 20:11:05 79.74, -97.42 58.03 1.13 44
7 06/06/2020 21:01:17 -79.72, 70.08 122.00 06/06/2020 21:02:02 -79.71, 70.19 121.98 2.26 45
8 06/09/2020 01:45:34 -79.75, -0.73 122.15 06/09/2020 01:44:21 -79.74, -0.65 122.17 1.93 73
9 06/09/2020 02:35:00 79.74, 166.85 57.84 06/09/2020 02:35:22 79.72, 166.83 57.83 2.45 22




NCC Satellite Simultaneous Nadir Overpasses (SNOs) Prediction Service
